RH
78 73 75 88 88 89 94 76 88 92 98 96 98 99 100 100 100 100 100 100 98 99 79 80 72 84 100 95 100 100 100 100
79 62 48 56 70 78 72 92 95 100 100 100 100 100 100 100 100 100 100 100 100 100 72 89 90 92 100 100 93 100 100 100
60 62 48 38 41 57 74 78 94 100 100 100 100 100 100 100 96 100 96 90 94 100 87 86 100 100 100 100 93 98 100 100
60 55 55 47 41 39 45 64 83 87 100 100 100 100 100 100 100 100 100 100 100 100 100 96 100 100 100 100 100 100 100 100
31 32 35 32 30 32 56 70 99 100 100 100 100 100 100 100 100 100 100 100 100 100 100 100 100 100 100 100 100 100 100 100
25 28 27 24 29 44 68 78 95 100 100 100 100 100 100 100 100 100 100 100 100 100 100 100 100 100 100 100 100 100 100 100
24 26 25 24 30 53 54 77 99 100 100 100 100 100 100 100 100 100 100 100 100 100 100 100 100 100 100 100 100 100 100 100
35 35 41 42 38 39 41 36 48 59 92 78 67 100 100 100 100 98 100 100 100 100 92 100 100 95 97 100 100 100 97 100
27 29 31 31 30 33 35 34 30 33 45 49 64 69 56 54 52 88 89 100 100 100 100 78 90 81 73 84 100 100 100 74
29 29 30 34 38 42 45 47 74 81 100 100 84 75 99 100 100 86 73 73 62 61 96 96 100 85 79 57 86 97 93 97
40 39 40 47 47 52 54 54 58 86 100 100 100 99 85 91 100 100 100 100 100 100 98 71 58 80 66 52 52 57 68 84
36 42 54 58 65 74 73 78 82 78 72 66 63 60 68 84 83 78 89 98 100 92 94 100 100 100 100 100 88 62 86 87
39 52 64 81 84 79 76 78 86 81 77 73 75 73 76 80 81 79 78 82 78 76 71 78 85 90 100 100 100 100 100 100
54 63 75 74 77 79 76 74 83 92 93 99 98 92 98 96 82 84 87 78 68 64 63 64 66 73 71 80 100 88 99 100
74 75 81 78 71 69 79 76 73 79 80 76 77 88 92 88 82 80 80 73 68 57 50 47 46 44 44 47 54 62 64 69
92 74 76 74 81 73 70 72 72 70 64 68 71 76 72 72 70 75 71 59 55 47 52 49 44 40 42 39 39 41 42 45
84 71 70 84 70 82 86 77 66 64 59 64 57 56 44 37 39 41 39 32 29 27 24 24 25 24 23 22 25 27 34 43
71 64 83 76 86 92 89 81 68 58 63 63 45 34 36 34 31 28 23 19 16 16 15 15 16 17 18 19 20 21 24 29
52 56 42 58 68 74 65 54 52 52 45 30 28 30 26 23 22 20 18 16 16 15 13 12 12 12 12 13 14 16 18 24
Wind_Speed
79 79 81 81 79 78 78 77 72 69 68 72 72 70 67 64 60 59 61 58 56 60 56 59 57 56 55 56 56 56 54 51
82 81 82 83 83 83 83 80 74 71 74 75 73 70 65 63 61 61 61 62 60 62 58 60 62 60 57 56 55 56 57 54
88 87 85 84 84 82 80 79 74 74 75 75 68 68 69 67 68 67 68 70 68 66 65 60 62 60 56 57 57 56 57 57
91 88 88 89 90 90 88 85 81 80 77 76 77 75 72 71 70 70 68 68 67 67 66 59 61 62 61 56 58 57 57 55
95 93 91 93 93 91 88 82 76 72 71 70 66 66 71 73 74 75 73 70 69 66 68 63 62 62 64 59 59 59 61 61
94 91 85 82 83 83 68 73 73 75 70 70 76 79 80 78 81 78 75 74 70 69 71 70 67 67 66 61 61 63 66 65
84 82 79 79 77 72 70 67 71 71 74 78 80 83 85 87 87 85 83 78 76 72 72 73 73 71 67 70 69 65 66 66
77 77 72 73 73 71 69 68 72 75 82 83 84 83 84 85 88 90 89 89 86 83 79 79 78 73 76 70 72 72 68 69
82 82 78 80 80 78 79 77 81 78 80 80 77 82 80 81 83 83 84 83 82 80 81 83 82 81 78 78 75 74 74 72
83 83 85 80 76 77 77 78 78 80 78 83 86 88 86 86 85 86 86 81 82 81 85 87 83 87 85 80 86 84 84 85
80 83 81 84 80 79 81 78 78 85 90 91 93 93 93 93 94 95 96 94 94 95 94 90 89 87 88 85 86 84 90 94
87 84 84 83 82 88 87 85 83 83 84 83 86 89 89 94 94 93 97 102 104 105 105 104 99 97 94 98 94 90 93 93
88 89 88 91 92 91 88 87 88 90 89 88 88 90 90 90 91 92 94 94 97 102 105 108 110 111 109 108 105 101 103 102
95 95 94 97 95 91 88 88 89 90 90 89 91 91 90 91 93 96 97 99 102 105 108 110 113 118 116 116 118 116 115 111
106 103 100 96 91 85 82 83 84 88 89 89 90 89 89 93 97 97 99 101 102 102 101 102 105 107 109 112 115 118 118 118
115 109 104 91 89 84 81 80 81 85 87 87 87 90 91 93 96 98 101 102 101 94 92 94 96 93 97 99 99 101 101 104
112 106 92 90 81 80 80 82 82 82 84 85 87 89 91 92 91 92 91 90 87 86 84 81 81 82 86 88 89 89 87 92
105 100 94 86 82 83 83 84 84 82 83 84 84 84 85 84 84 87 89 87 82 82 80 74 68 69 74 77 78 78 78 81
98 93 89 86 85 85 85 83 83 81 82 83 81 80 82 82 81 80 82 78 72 73 70 65 61 62 62 64 66 69 70 74
Wind_Direction
288 290 291 292 291 291 291 292 292 290 287 292 291 289 290 289 284 283 283 286 288 286 283 279 282 278 274 276 279 281 275 273
288 289 288 288 289 291 293 293 292 289 288 291 290 289 287 285 282 281 281 282 283 278 281 277 275 276 276 276 278 280 277 271
286 287 286 286 287 287 288 290 291 289 287 288 283 283 282 280 279 276 277 279 282 276 280 276 271 272 274 276 275 277 277 277
284 284 284 285 285 285 285 284 283 283 282 282 280 280 277 274 273 273 271 272 274 272 275 279 276 273 272 274 276 276 276 276
285 286 286 286 287 283 283 280 277 273 273 274 271 273 274 274 273 270 269 269 271 272 272 272 276 275 273 269 270 270 271 271
288 286 285 285 286 283 275 274 270 268 263 262 263 263 265 267 269 270 274 272 272 274 275 273 272 274 268 265 268 268 268 270
287 285 285 284 283 280 276 271 265 262 260 259 259 259 261 262 266 270 271 271 269 269 272 270 271 271 266 265 266 268 267 268
285 286 284 284 284 282 278 275 268 267 261 264 265 262 262 264 265 268 268 269 271 267 266 267 267 271 262 262 263 264 265 265
281 281 282 284 285 284 282 279 277 274 270 264 263 265 264 271 269 268 269 268 268 267 270 271 267 264 261 258 261 262 261 263
286 285 287 289 290 291 290 288 286 283 279 282 281 282 280 279 277 276 274 275 270 267 265 267 266 265 266 261 255 258 259 260
289 291 295 295 295 295 291 283 279 275 269 269 272 272 273 271 271 272 272 272 275 275 275 270 267 264 262 264 263 261 260 259
289 292 295 296 294 294 290 284 281 278 275 274 273 271 270 269 270 272 270 268 269 267 267 265 266 267 268 269 268 264 260 263
288 293 293 295 292 290 286 283 281 280 278 278 277 276 275 273 273 273 272 271 268 268 268 267 264 264 262 264 263 263 264 261
290 292 290 290 287 285 283 283 282 280 279 278 277 278 276 275 275 274 273 272 270 268 266 266 267 265 264 264 264 263 261 260
292 294 292 289 287 284 281 278 277 277 277 277 276 274 275 275 274 273 273 274 275 275 276 274 271 270 269 267 265 263 263 262
293 294 295 290 289 286 281 278 276 276 276 275 274 274 274 275 274 273 273 276 277 277 275 272 272 272 271 269 268 267 265 264
293 291 288 290 287 284 284 282 279 278 277 277 275 276 277 277 278 279 281 280 280 279 275 273 273 271 268 268 266 266 264 262
290 290 289 287 286 285 284 283 283 282 280 278 278 278 279 281 282 282 282 282 282 280 279 278 273 269 266 264 264 263 261 261
288 288 287 286 284 284 283 284 284 283 282 282 283 283 283 283 283 283 281 282 282 280 280 280 278 272 267 264 262 260 258 256